Current Conditions
Clear
Conditions



Pressure
1014.92 (hPa) - 29.97 (inHG)
Visibility

10.0 (km) - 6.2 (miles)
   Temperature
4  °C
39°F
-2  °C
Dewpoint
65  %
 Humidity
   Wind Speed
21  km/h
11  kts
13  mph
5.8  m/s
   Wind Direction
 210°
South South
West
   Airport Data
LHPR
Location Győr-Pér International Airport 10 km (6.22 mi)
Metar :LHPR 191945Z AUTO 21011KT 180V240 CAVOK 04/M02 Q1015
Tue 19th January 21:45 pm
   Raw Metar Info
Raw METAR is the most common format in the world for the transmission of observational weather data. It is highly standardized through the International Civil Aviation Organization (ICAO), which allows it to be understood throughout most of the world.
   API Info
Data Provided by
https://www.checkwx.com/weather/LHPR
   © Info
CSS/SVG/PHP scripts were developed by weather34.com for use in the weather34 template © 2015-2021

Guide Info provided by Metar-Wikipedia